STARLINK-4443, 53508

Orbit data source: Space-Track

STARLINK-4443, 53508 is a payload satellite owned by SpaceX/Seattle (US) in SSO that was launched on Fri, 12 Aug 2022 UTC via an FALCON 9 launch vehicle from the Air Force Western Test Range (AFWTR). Payload-class satellites include a variety of spacecraft equipped with specific instruments for various scientific and technological missions. These include communications satellites like Starlink; space stations such as the ISS; scientific satellites like the Hubble; Earth observation satellites from companies like Planet Labs, Umbra, and HawkEye 360; GPS; miniature CubeSats for education and research; and military/defense satellites.

Loading next visibility...
Identifier
53508, 2022-099AV
Orbit
SSO
Country
Flag of USUS
Related business
Manufacturer
SpaceX/Seattle
Mission
Operational Commercial Communications
Bus & Motor
STARLINK, Unknown motor
Mass
300 kg wet, ~275 kg dry
Launch date (UTC)
2022-08-12 (4 years ago)
Launch vehicle
FALCON 9
Launch site
Air Force Western Test Range (AFWTR)
Object type
Payload
Rocket body
Debris
Shape & HBR
Box + 1 Pan, 10.1 m
Radar Cross Section
13.562 m², Large (>1 m²)

Expand to show TLE details & history
Last TLE update: 8 hours ago

TLE from 8 hours ago
0 STARLINK-4443
1 53508U 22099AV  26145.57838976 -.00002328  00000-0 -15733-3 0  9993
2 53508  97.4446 266.6423 0001982 138.3409 221.7969 15.05644206207620
Epoch: 2026-05-25T13:52Z
TLE epoch observation values (Epoch: 2026-05-25T13:52:52.875Z)
Latitude
-0.00006°
Longitude
175.25783°
Altitude
553.623 km
Speed
7.584 km/s
True Right ascension
17h 46m 34s
True Declination
0° 00' 00"
Sunlit
Object was in full shadow at epoch
Visualization orbit readout
Latitude
Unknown
Longitude
Unknown
Altitude
Unknown
Speed
Unknown
Apparent Right ascension
Unknown
Apparent Declination
Unknown
Sunlit
N/A
Visualization observer readout
Local Sidereal Time
06:58:58
Azimuth
Unknown
Elevation
Unknown
Doppler factor
Unknown
Orbital elements
Apogee altitude
547.888 km
Perigee altitude
545.143 km
Semi-major axis
6,924.653 km
Eccentricity
0.0002
Inclination
97.4446°
RAAN
266.6423°
Arg. of periapsis
138.3409°
True anomaly
221.78177°
Mean anomaly
221.7969°
Eccentric anomaly
221.78933°
Mean motion
3.76657 °/min
Orbital period
95.58 mins
BSTAR
-0.00015733
Loading maneuver chart data...
Computing Atmospheric mass density...
Loading historical data...
Loading historical data...
Loading historical data...
Loading historical data...
Loading historical data...
Loading historical data...
Loading historical data...

Documentation

Showing up to 5 results
|